Watsonville, CA

4:31 PM PDT on October 14, 2019 (GMT -0700)
Watsonville Municipal

Weather History for KWVI - August, 2019

Change the Weather History Date:

Thursday, August 8, 2019

  Actual Average Record
Temperature  
Mean Temperature 67 °F 63 °F  
Max Temperature 80 °F 74 °F 94 °F (2002)
Min Temperature 53 °F 53 °F 47 °F (2018)
Degree Days  
Heating Degree Days 0    
Month to date heating degree days 6  
Since 1 June heating degree days 144  
Since 1 July heating degree days 53  
Cooling Degree Days 2    
Month to date cooling degree days 5  
Year to date cooling degree days 59  
Since 1 June cooling degree days 59  
Growing Degree Days 16 (Base 50)    
Moisture  
Dew Point 53 °F    
Average Humidity 68    
Maximum Humidity 93    
Minimum Humidity 42    
Precipitation  
Precipitation 0.00 in - 0.01 in (1963)
Month to date precipitation T  
Year to date precipitation 22.76  
Sea Level Pressure  
Sea Level Pressure 29.99 in    
Wind  
Wind Speed 3 mph (SE)    
Max Wind Speed 13 mph    
Max Gust Speed 18 mph    
Visibility 10 miles    
Events      
T = Trace of Precipitation, MM = Missing Value Source: NWS Daily Summary

Daily Weather History Graph

Daily Weather History Graph

Search for Another Location

Airport or City:

Astronomy

Aug. 08, 2019 Rise Set
Actual Time 6:18 AM PDT 8:06 PM PDT
Civil Twilight 5:50 AM PDT 8:34 PM PDT
Nautical Twilight 5:15 AM PDT 9:08 PM PDT
Astronomical Twilight 4:39 AM PDT 9:45 PM PDT
Moon 2:48 PM PDT (8/8) 12:42 AM PDT (8/8)
Length of Visible Light 14h 44m
Length of Day
13h 48m
First Quarter, 61% of the Moon is Illuminated
Aug 8
First Quarter
Aug 15
Full
Aug 23
Last Quarter
Aug 30
New
Sep 5
First Quarter

Hourly Weather History & Observations

Time (PDT) Temp. Dew Point Humidity Pressure Visibility Wind Dir Wind Speed Gust Speed Precip Events Conditions
12:53 AM 55.9 °F 52.0 °F 87% 29.99 in 10.0 mi Calm Calm - N/A   Clear
1:53 AM 55.9 °F 51.1 °F 84% 29.98 in 10.0 mi Calm Calm - N/A   Clear
2:53 AM 54.0 °F 51.1 °F 90% 29.98 in 10.0 mi NNW 3.5 mph - N/A   Clear
3:17 AM 54.0 °F 50.0 °F 86% 29.98 in 10.0 mi Calm Calm - N/A   Mostly Cloudy
3:31 AM 54.0 °F 50.0 °F 86% 29.98 in 10.0 mi Calm Calm - N/A   Overcast
3:53 AM 53.1 °F 50.0 °F 89% 29.99 in 10.0 mi Calm Calm - N/A   Scattered Clouds
4:00 AM 53.1 °F 50.0 °F 89% 29.98 in 10.0 mi Calm Calm - N/A   Mostly Cloudy
4:08 AM 54.0 °F 50.0 °F 86% 29.99 in 10.0 mi Calm Calm - N/A   Mostly Cloudy
4:34 AM 55.9 °F 51.1 °F 84% 29.99 in 10.0 mi Calm Calm - N/A   Overcast
4:53 AM 55.0 °F 52.0 °F 89% 29.99 in 10.0 mi Calm Calm - N/A   Overcast
5:53 AM 57.0 °F 53.1 °F 87% 30.00 in 7.0 mi East 3.5 mph - N/A   Overcast
6:13 AM 57.0 °F 54.0 °F 89% 30.00 in 5.0 mi ENE 3.5 mph - N/A   Overcast
6:49 AM 57.2 °F 53.6 °F 88% 30.01 in 8.0 mi East 3.5 mph - N/A   Overcast
6:53 AM 57.0 °F 54.0 °F 89% 30.01 in 8.0 mi ESE 3.5 mph - N/A   Overcast
7:14 AM 57.0 °F 54.0 °F 89% 30.02 in 9.0 mi Calm Calm - N/A   Overcast
7:36 AM 57.9 °F 54.0 °F 87% 30.02 in 9.0 mi Calm Calm - N/A   Overcast
7:53 AM 57.9 °F 54.0 °F 87% 30.03 in 10.0 mi East 3.5 mph - N/A   Overcast
8:53 AM 60.1 °F 53.1 °F 78% 30.04 in 10.0 mi Calm Calm - N/A   Overcast
9:53 AM 63.0 °F 53.1 °F 70% 30.04 in 10.0 mi Calm Calm - N/A   Mostly Cloudy
10:53 AM 66.9 °F 54.0 °F 63% 30.03 in 10.0 mi Calm Calm - N/A   Partly Cloudy
11:53 AM 70.0 °F 54.0 °F 57% 30.02 in 10.0 mi SW 9.2 mph - N/A   Clear
12:53 PM 70.0 °F 55.0 °F 59% 30.01 in 10.0 mi SW 6.9 mph - N/A   Clear
1:53 PM 73.0 °F 55.9 °F 55% 30.00 in 10.0 mi South 8.1 mph - N/A   Clear
2:53 PM 75.9 °F 55.0 °F 48% 29.98 in 10.0 mi Variable 4.6 mph - N/A   Clear
3:53 PM 79.0 °F 55.9 °F 45% 29.96 in 10.0 mi South 5.8 mph - N/A   Clear
4:53 PM 78.1 °F 55.0 °F 45% 29.96 in 10.0 mi SSW 5.8 mph - N/A   Clear
5:53 PM 78.1 °F 54.0 °F 43% 29.94 in 10.0 mi Calm Calm - N/A   Clear
6:53 PM 73.0 °F 52.0 °F 48% 29.94 in 10.0 mi West 5.8 mph - N/A   Clear
7:53 PM 66.9 °F 53.1 °F 61% 29.96 in 10.0 mi ENE 5.8 mph - N/A   Clear
8:53 PM 64.0 °F 53.1 °F 67% 29.97 in 10.0 mi East 4.6 mph - N/A   Clear
9:53 PM 59.0 °F 53.1 °F 81% 30.00 in 10.0 mi SSW 3.5 mph - N/A   Clear
10:53 PM 62.1 °F 53.1 °F 72% 30.00 in 10.0 mi NE 3.5 mph - N/A   Clear
11:53 PM 60.1 °F 53.1 °F 78% 29.99 in 10.0 mi Calm Calm - N/A   Clear